Location: Martin
(32.0982°N, 93.2193°W)
Time: 16:28:14
(UTC+00:00)

ARIANE 6 FM1 Upper Stage - Pass Details

Date: 23 September 2024
Orbit: 563 x 595 km, 62.0° (Epoch: 12 October)

Event Time Altitude Azimuth Distance (km) Brightness Sun altitude
Exits shadow 09:20:55 18° 95° (E) 1,474 5.3 -34.0°
Drops below altitude 10° 09:22:26 10° 110° (ESE) 1,925 5.8 -33.7°
Sets 09:24:58 0° 123° (ESE) 2,822 6.6 -33.2°
